Location: Helensbirgh
(56.0153°N, 4.7348°W)
Time: 06:26:05
(UTC+01:00)

N. Korean satellite - Visible Passes

Search period start: 23 October 2019 00:00
Search period end: 01 November 2019 23:00
Orbit: 455 x 508 km, 97.2° (Epoch: 22 October)

Date Brightness Start Highest point End Pass type
(mag) Time Alt. Az. Time Alt. Az. Time Alt. Az.
23 Oct 10.3 06:05:34 10° ENE 06:07:12 13° E 06:08:50 10° ESE visible
24 Oct 7.5 07:12:12 10° NNE 07:15:47 53° E 07:19:23 10° S visible
24 Oct 10.0 19:30:12 10° WSW 19:32:11 14° W 19:34:11 10° NW visible
25 Oct 8.8 06:47:06 10° NNE 06:50:22 30° E 06:53:39 10° SSE visible
25 Oct 9.2 19:03:43 10° SSW 19:06:37 24° W 19:09:35 10° NW visible
26 Oct 9.8 06:22:15 10° NE 06:24:51 18° E 06:27:27 10° SE visible
26 Oct 8.0 18:37:49 10° S 18:41:09 43° W 18:44:33 10° NNW visible
27 Oct 10.5 04:58:18 10° ENE 04:59:15 11° E 05:00:12 10° E visible
27 Oct 6.8 06:29:35 10° NNE 06:33:16 82° ESE 06:36:58 10° SSW visible
28 Oct 7.9 06:04:21 10° NNE 06:07:53 45° E 06:11:27 10° S visible
28 Oct 9.9 18:21:49 10° SW 18:24:12 17° W 18:26:37 10° NW visible
29 Oct 9.1 05:39:17 10° NE 05:42:25 26° E 05:45:35 10° SSE visible
29 Oct 8.8 17:55:33 10° SSW 17:58:39 29° W 18:01:48 10° NNW visible
30 Oct 10.0 05:14:33 10° NE 05:16:53 16° E 05:19:12 10° SE visible
30 Oct 7.5 17:29:46 10° S 17:33:11 53° W 17:36:42 10° NNW visible
31 Oct 7.0 06:21:40 10° NNE 06:25:21 69° ESE 06:29:04 10° S visible
31 Oct 10.2 18:40:22 10° WSW 18:41:47 12° W 18:43:14 10° WNW visible
01 Nov 8.3 05:56:28 10° NNE 05:59:57 38° E 06:03:26 10° SSE visible
01 Nov 9.5 18:13:29 10° SW 18:16:11 20° W 18:18:55 10° NW visible
